CW5920 Weather Reports


time (UTC)temp
F
wind
direction
speed
knots
gust
knots
rain 1hr
in
rain 24hr
in
rain mn
in
humidity
%
barometer
mb
20260906163017 93 0 1.7 6.1 0.00 0.00 0.00 54 1014.8
20260906162017 93 45 2.6 7.8 0.00 0.00 0.00 55 1014.8
20260906161037 92 0 0.9 8.7 0.00 0.00 0.00 59 1014.7
20260906160017 92 68 2.6 7.0 0.00 0.00 0.00 59 1014.5
20260906155017 91 90 0.9 6.1 0.00 0.00 0.00 61 1014.6
20260906154017 91 0 1.7 4.3 0.00 0.00 0.00 62 1014.7
20260906153037 90 113 0.9 6.1 0.00 0.00 0.00 63 1014.6
20260906152037 90 90 0.9 3.5 0.00 0.00 0.00 64 1014.6
20260906151017 89 113 0.9 5.2 0.00 0.00 0.00 66 1014.5
20260906150017 88 113 0.9 3.5 0.00 0.00 0.00 66 1014.3
20260906145015 87 113 0.9 3.5 0.00 0.00 0.00 68 1014.3
20260906144037 87 0.0 1.7 0.00 0.00 0.00 70 1014.4
20260906143017 86 113 0.9 3.5 0.00 0.00 0.00 72 1014.3
20260906142037 84 0.0 0.0 0.00 0.00 0.00 74 1014.2
20260906141017 84 113 0.9 3.5 0.00 0.00 0.00 76 1014.3
20260906140017 83 0.0 2.6 0.00 0.00 0.00 78 1014.3
20260906135017 82 90 0.9 3.5 0.00 0.00 0.00 80 1014.1
20260906134017 81 90 0.9 2.6 0.00 0.00 0.00 81 1014.1
20260906133057 80 158 0.9 3.5 0.00 0.00 0.00 83 1014.1
20260906132017 79 158 0.9 2.6 0.00 0.00 0.00 85 1014.0
20260906131017 78 158 0.9 3.5 0.00 0.00 0.00 86 1013.9
20260906130037 77 0.0 1.7 0.00 0.00 0.00 87 1014.0
20260906125017 77 0.0 0.0 0.00 0.00 0.00 88 1013.9
20260906124017 76 0.0 0.0 0.00 0.00 0.00 88 1013.8
20260906123017 76 0.0 1.7 0.00 0.00 0.00 88 1013.8
20260906122017 76 0.0 0.9 0.00 0.00 0.00 88 1013.7
20260906121017 76 0.0 0.0 0.00 0.00 0.00 87 1013.6
20260906120017 76 0.0 0.0 0.00 0.00 0.00 87 1013.4
20260906115037 76 0.0 0.0 0.00 0.00 0.00 86 1013.3
20260906114017 76 0.0 0.0 0.00 0.00 0.00 86 1013.2
20260906113017 76 0.0 0.0 0.00 0.00 0.00 86 1013.4
20260906112017 77 0.0 0.0 0.00 0.00 0.00 85 1013.2
20260906111017 77 0.0 0.0 0.00 0.00 0.00 85 1013.2
20260906110017 77 0.0 0.0 0.00 0.00 0.00 84 1013.1
20260906105017 77 0.0 0.0 0.00 0.00 0.00 84 1013.0
20260906104037 77 0.0 0.9 0.00 0.00 0.00 82 1013.0
20260906103017 78 0.0 0.0 0.00 0.00 0.00 82 1012.9
20260906102017 78 0.0 0.0 0.00 0.00 0.00 81 1012.8
20260906101037 78 0.0 0.0 0.00 0.00 0.00 81 1012.8
20260906100017 79 0.0 0.0 0.00 0.00 0.00 80 1012.7
20260906095017 79 0.0 0.0 0.00 0.00 0.00 80 1012.6
20260906094017 79 0.0 0.0 0.00 0.00 0.00 80 1012.5
20260906093057 79 0.0 0.0 0.00 0.00 0.00 79 1012.5
20260906092017 80 0.0 0.0 0.00 0.00 0.00 79 1012.4
20260906091017 80 0.0 0.0 0.00 0.00 0.00 78 1012.3
20260906090017 80 0.0 0.0 0.00 0.00 0.00 78 1012.4
20260906085016 80 0.0 0.0 0.00 0.00 0.00 78 1012.4
20260906084016 81 0.0 0.9 0.00 0.00 0.00 77 1012.4
20260906083016 81 0.0 0.9 0.00 0.00 0.00 77 1012.3
20260906082036 81 0.0 0.9 0.00 0.00 0.00 77 1012.4
20260906081016 81 0.0 2.6 0.00 0.00 0.00 77 1012.5
20260906080016 81 0.0 0.0 0.00 0.00 0.00 76 1012.4
20260906075016 81 0.0 1.7 0.00 0.00 0.00 76 1012.5
20260906074016 82 158 1.7 4.3 0.00 0.00 0.00 76 1012.5
20260906073016 82 135 0.9 2.6 0.00 0.00 0.00 75 1012.7
20260906072016 82 135 0.9 4.3 0.00 0.00 0.00 75 1012.7
20260906071036 82 158 2.6 5.2 0.00 0.00 0.00 75 1012.8
20260906070016 82 158 2.6 8.7 0.00 0.00 0.00 74 1012.7
20260906065036 83 158 0.9 3.5 0.00 0.00 0.00 74 1012.9
20260906064016 83 158 3.5 6.1 0.00 0.00 0.00 74 1013.1
20260906063016 83 158 3.5 7.0 0.00 0.00 0.00 73 1013.1
20260906062016 83 158 0.9 2.6 0.00 0.00 0.00 73 1013.2
20260906061036 83 158 0.9 3.5 0.00 0.00 0.00 73 1013.2
20260906060016 83 0.0 0.9 0.00 0.00 0.00 73 1013.1
20260906055016 83 158 2.6 5.2 0.00 0.00 0.00 73 1013.0
20260906054016 83 158 1.7 6.1 0.00 0.00 0.00 73 1012.9
20260906053016 83 135 0.9 2.6 0.00 0.00 0.00 73 1012.9
20260906052016 84 0.0 0.9 0.00 0.00 0.00 72 1012.9
20260906051016 84 0.0 2.6 0.00 0.00 0.00 72 1013.0
20260906050016 84 135 1.7 4.3 0.00 0.00 0.00 71 1013.1
20260906045016 84 135 0.9 3.5 0.00 0.00 0.00 71 1013.0
20260906044016 85 135 1.7 4.3 0.00 0.00 0.00 70 1012.9
20260906043016 85 113 3.5 7.8 0.00 0.00 0.00 70 1012.8
20260906042016 85 135 6.1 10.4 0.00 0.00 0.00 69 1012.7
20260906041016 85 135 3.5 7.8 0.00 0.00 0.00 69 1012.7
20260906040016 85 135 3.5 8.7 0.00 0.00 0.00 70 1012.8
20260906035016 85 135 1.7 3.5 0.00 0.00 0.00 70 1012.8
20260906034016 85 113 2.6 5.2 0.00 0.00 0.00 70 1012.8
20260906033016 86 113 3.5 6.1 0.00 0.00 0.00 69 1012.8
20260906032056 86 113 2.6 6.1 0.00 0.00 0.00 69 1013.0
20260906031016 86 113 2.6 6.1 0.00 0.00 0.00 69 1012.8
20260906030016 86 113 3.5 7.0 0.00 0.00 0.00 68 1012.6
20260906025016 87 90 3.5 7.0 0.00 0.00 0.00 67 1012.6
20260906024016 87 113 4.3 8.7 0.00 0.00 0.00 66 1012.4
20260906023016 87 113 3.5 7.0 0.00 0.00 0.00 65 1012.1
20260906022016 88 113 5.2 8.7 0.00 0.00 0.00 64 1012.0
20260906021016 88 113 4.3 8.7 0.00 0.00 0.00 63 1011.9
20260906020016 89 113 5.2 8.7 0.00 0.00 0.00 61 1011.6
20260906015016 89 113 7.8 12.2 0.00 0.00 0.00 60 1011.6
20260906014036 90 90 6.1 8.7 0.00 0.00 0.00 57 1011.4
20260906013036 91 90 8.7 12.2 0.00 0.00 0.00 54 1011.2
20260906012016 92 113 2.6 10.4 0.00 0.00 0.00 50 1010.9
20260906011016 93 113 1.7 6.1 0.00 0.00 0.00 49 1010.8
20260906010016 94 113 2.6 6.1 0.00 0.00 0.00 48 1010.7
20260906005016 94 113 4.3 7.0 0.00 0.00 0.00 47 1010.8
20260906004016 95 113 5.2 9.6 0.00 0.00 0.00 46 1010.8
20260906003036 95 113 7.8 12.2 0.00 0.00 0.00 45 1010.7
20260906002016 96 113 6.1 10.4 0.00 0.00 0.00 44 1010.7
20260906001016 97 113 5.2 7.8 0.00 0.00 0.00 42 1010.6
20260906000016 97 113 2.6 7.0 0.00 0.00 0.00 41 1010.5
20260905235016 97 68 2.6 5.2 0.00 0.00 0.00 41 1010.5
20260905234016 97 90 3.5 7.8 0.00 0.00 0.00 41 1010.4
20260905233016 97 68 2.6 5.2 0.00 0.00 0.00 41 1010.4
20260905232016 97 135 2.6 7.8 0.00 0.00 0.00 41 1010.4
20260905231016 97 113 3.5 9.6 0.00 0.00 0.00 41 1010.5
20260905230016 98 90 4.3 8.7 0.00 0.00 0.00 41 1010.4
20260905225015 98 90 2.6 7.8 0.00 0.00 0.00 41 1010.5
20260905224016 98 90 1.7 7.0 0.00 0.00 0.00 41 1010.3
20260905223015 98 45 3.5 7.8 0.00 0.00 0.00 40 1010.4
20260905222015 98 23 1.7 4.3 0.00 0.00 0.00 41 1010.4
20260905221016 98 338 2.6 7.8 0.00 0.00 0.00 41 1010.4
20260905220016 98 68 6.1 10.4 0.00 0.00 0.00 40 1010.6
20260905215016 98 23 4.3 9.6 0.00 0.00 0.00 40 1010.6
20260905214016 98 68 4.3 11.3 0.00 0.00 0.00 40 1010.7
20260905213016 98 113 2.6 8.7 0.00 0.00 0.00 39 1010.9
20260905212017 99 90 1.7 7.8 0.00 0.00 0.00 39 1011.0
20260905211036 99 90 2.6 7.0 0.00 0.00 0.00 38 1011.2
20260905210016 99 135 4.3 8.7 0.00 0.00 0.00 39 1011.4
20260905205016 100 158 2.6 7.8 0.00 0.00 0.00 40 1011.6
20260905204016 100 135 2.6 7.8 0.00 0.00 0.00 39 1011.6
20260905203036 99 135 2.6 10.4 0.00 0.00 0.00 39 1011.7
20260905202016 99 90 2.6 7.0 0.00 0.00 0.00 39 1011.9
20260905201015 99 135 4.3 8.7 0.00 0.00 0.00 40 1011.9
20260905200016 99 151 3.5 0.0 0.00 0.00 0.00 41 1012.1
20260905195015 98 135 2.6 8.7 0.00 0.00 0.00 42 1012.3
20260905194016 97 0 0.9 3.5 0.00 0.00 0.00 43 1012.5
20260905193016 97 0 0.9 4.3 0.00 0.00 0.00 43 1012.6
20260905192016 98 113 3.5 7.8 0.00 0.00 0.00 42 1012.8
20260905191016 99 90 2.6 6.1 0.00 0.00 0.00 41 1013.0
20260905190015 98 135 5.2 11.3 0.00 0.00 0.00 42 1013.1
20260905185015 98 113 1.7 5.2 0.00 0.00 0.00 41 1013.3
20260905184016 99 158 0.9 6.1 0.00 0.00 0.00 41 1013.6
20260905183016 97 23 0.9 5.2 0.00 0.00 0.00 43 1013.6
20260905182036 98 113 2.6 7.0 0.00 0.00 0.00 41 1013.8
20260905181015 97 158 0.9 8.7 0.00 0.00 0.00 42 1013.9
20260905180015 97 90 2.6 7.0 0.00 0.00 0.00 42 1014.1
20260905175015 97 158 4.3 9.6 0.00 0.00 0.00 44 1014.4
20260905174015 97 68 3.5 7.0 0.00 0.00 0.00 43 1014.3
20260905173016 97 135 3.5 10.4 0.00 0.00 0.00 46 1014.5
20260905172015 96 158 2.6 9.6 0.00 0.00 0.00 47 1014.6
20260905171015 95 135 3.5 8.7 0.00 0.00 0.00 48 1014.6
20260905170056 95 113 2.6 8.7 0.00 0.00 0.00 48 1014.6
20260905165016 95 113 2.6 9.6 0.00 0.00 0.00 48 1014.8
20260905164015 94 135 2.6 7.8 0.00 0.00 0.00 49 1014.8